Regional Weather Roundup
Issued by NWS

Home | Current Version | Previous Version | Text Only | Print | Product List | Glossary On
Versions: 1 2 3 4 5 6 7 8 9 10 11 12 13 14 15 16 17 18 19 20 21 22 23 24 25 26 27 28 29 30 31 32 33 34 35 36 37 38 39 40 41 42 43 44 45 46 47 48 49 50
000
ASUS42 KTBW 231416
RWRFL
FLORIDA REGIONAL WEATHER ROUNDUP
NATIONAL WEATHER SERVICE TAMPA BAY RUSKIN FL
1000 AM EDT SUN SEP 23 2018

NOTE: "FAIR" INDICATES FEW OR NO CLOUDS BELOW 12,000 FEET WITH NO
SIGNIFICANT WEATHER AND/OR OBSTRUCTIONS TO VISIBILITY.

FLZ001>010-012>015-112-114-115-231500-
PANHANDLE FLORIDA

CITY           SKY/WX    TMP DP  RH WIND       PRES   REMARKS
PENSACOLA      LGT RAIN  82  73  74 VRB3      30.00S
MILTON NAS     FAIR      78  72  81 CALM      30.02
CRESTVIEW      FAIR      80  71  74 E6        30.03R
DUKE FIELD     FAIR      78  72  80 NE5       30.02R
VALPARAISO     MOSUNNY   81  71  70 CALM      30.00R
MARY ESTHER    MOSUNNY   82  65  56 NE7       29.99R
PANAMA CITY    FAIR      81  74  79 NE8       30.01R
TYNDALL AFB    FAIR      77  74  88 E5        30.02R
APALACHICOLA   PTSUNNY   77  75  93 W6        30.02R

STATION/POSITION SKY/WX   TEMP    WIND        PRES    WAVE   SWELL
                          AIR SEA DIR/SP/G            HT/PER HT/PER
                          (F)     (DEG/KT/KT) (MB)    (FT/S) (FT/S)
30.1N   87.6W              78     180/ 16/ 17 1015.7
29.2N   88.2W                 86  140/ 10/ 14 1015.4R   2/ 6   2/ 8
28.8N   86.0W              82 86  100/  6/  8   N/A     2/ 5   2/ 5
PANAMA CITY BEAC           79 87              1016.5R
TOWER C                    83     160/  7/  8 1016.6R

$$
FLZ011-016>038-118-127-128-134-139-239-231500-
NORTH FLORIDA

CITY           SKY/WX    TMP DP  RH WIND       PRES   REMARKS
MARIANNA       FAIR      80  73  79 E6        30.02R
TALLAHASSEE    FAIR      81  72  74 SE8       30.04R
PERRY          FAIR      82  74  77 SE5       30.05R
LIVE OAK       SUNNY     81  73  78 E3        30.04S
CROSS CITY     FAIR      81  74  81 E6        30.04R
LAKE CITY      FAIR      81  72  74 SE8       30.06R
GAINESVILLE    FAIR      83  72  69 E7        30.07R
PALATKA        FAIR      82  73  74 SE7       30.06R
MAYPORT NAS    FAIR      86  71  60 SE6       30.05R
JACKSONVILLE   FAIR      83  72  69 CALM      30.05R
JAX NAS        FAIR      83  71  67 SE6       30.06R
JAX CECIL      SUNNY     88  73  62 CALM      30.05R HX  96
ST AUGUSTINE   PTSUNNY   84  71  65 E8        30.06R
PALM COAST     SUNNY     84  70  61 SE8       30.05R

STATION/POSITION SKY/WX   TEMP    WIND        PRES    WAVE   SWELL
                          AIR SEA DIR/SP/G            HT/PER HT/PER
                          (F)     (DEG/KT/KT) (MB)    (FT/S) (FT/S)
SHELL POINT      NOT AVBL
KEATON BEACH               79      80/  6/  7 1017.3R
CEDAR KEY                  80     100/  9/ 11 1017.3R
FERNANDINA                 86 85              1018.5R
30.7N   81.3W                 85                N/A     2/11   2/11
MAYPORT                    84 85              1017.9R
31.4N   80.9W              79 84   40/ 12/ 19 1017.8R   3/11   2/11
ST AUGUSTINE               83 83  130/  8/ 10 1018.3R

$$
FLZ040-043>046-052-053-057-058-063-144-231500-
INTERIOR CENTRAL FLORIDA

CITY           SKY/WX    TMP DP  RH WIND       PRES   REMARKS
OCALA          FAIR      82  72  71 VRB6      30.05R
LEESBURG       FAIR      84  74  71 E8        30.05R
SANFORD        FAIR      84  72  67 E10       30.04R
ORLANDO EXEC   FAIR      85  74  69 E12       30.03R
ORLANDO INTL   PTSUNNY   82  74  76 E8        30.03R
KISSIMMEE      PTSUNNY   80  75  84 E3        30.04R
WINTER HAVEN   FAIR      81  75  82 E9        30.04R
LAKELAND       MOSUNNY   82  75  78 E12       30.03R
SEBRING        FAIR      84  76  77 CALM      30.02R
OKEECHOBEE       N/A     79  75  89 CALM      30.01R

$$
FLZ041-047-054-059-064-141-147-231500-
EAST CENTRAL FLORIDA

CITY           SKY/WX    TMP DP  RH WIND       PRES   REMARKS
ORMOND BEACH   MOSUNNY   84  72  65 E6        30.04R
DAYTONA BEACH  FAIR      84  73  69 VRB7      30.04R
DELAND         FAIR      84  73  70 E7        30.04R
NEW SMYRNA BEA MOSUNNY   86  72  62 E9        30.05R
JFK SPACE CTR  PTSUNNY   86  73  64 E9        30.03R
TITUSVILLE     MOSUNNY   88  72  58 E8        30.04R
CAPE CANAVERAL FAIR      86  72  63 E12       30.02R
PATRICK AFB    PTSUNNY   85  73  68 E14       30.02R
MELBOURNE      CLOUDY    85  73  67 E16       30.02R
VERO BEACH     PTSUNNY   78  75  90 NE3       30.02R FOG
FT PIERCE      CLOUDY    79  76  90 E8        30.02R
STUART         MOSUNNY   84  75  74 E6        30.02R

STATION/POSITION SKY/WX   TEMP    WIND        PRES    WAVE   SWELL
                          AIR SEA DIR/SP/G            HT/PER HT/PER
                          (F)     (DEG/KT/KT) (MB)    (FT/S) (FT/S)
28.5N   80.2W              83      70/ 12/ 14 1017.0R   4/11   3/11
28.9N   78.5W              83 85   70/ 12/ 14 1017.5R
TRIDENT PIER               84 85              1018.4R
28.4N   80.5W                 85                N/A     3/12   2/12
27.5N   80.2W                 83                N/A     3/11   2/11

$$
FLZ050-056-061-142-242-148-248-149-249-151-251-155-255-
160-260-231500-
WEST CENTRAL FLORIDA

CITY           SKY/WX    TMP DP  RH WIND       PRES   REMARKS
CRYSTAL RIVER  FAIR      82  73  74 E7        30.03R
BROOKSVILLE    FAIR      83  74  74 E9        30.03R
CLEARWATER AIR FAIR      81  73  78 E5        30.01S
ST PETE CLEARW NOT AVBL
TAMPA INTL     FAIR      85  74  69 VRB7      30.02R
TAMPA EXEC     FAIR      82  75  78 E6        30.03R
PLANT CITY     PTSUNNY   84  75  74 E8        30.04S
MACDILL AFB    FAIR      83  75  76 E9        30.01R
PETER O KNIGHT PTSUNNY   82  77  83 E5        30.02R
ST PETERSBURG  FAIR      82  77  84 E8        30.00R
SARASOTA       FAIR      82  76  81 SE12      29.99R
VENICE         FAIR      84  77  79 E8        30.01R

STATION/POSITION SKY/WX   TEMP    WIND        PRES    WAVE   SWELL
                          AIR SEA DIR/SP/G            HT/PER HT/PER
                          (F)     (DEG/KT/KT) (MB)    (FT/S) (FT/S)
CLEARWATER BEACH           81 87              1016.3R
MIDDLE TAMPA BAY           74                 1016.1R
VENICE                     81 85  110/  7/  8   N/A

$$
FLZ066-069-070-075>078-162-262-165-265-231500-
SOUTHWEST FLORIDA AND KEYS

CITY           SKY/WX    TMP DP  RH WIND       PRES   REMARKS
PUNTA GORDA    FAIR      84  76  76 E6        30.02R
FT MYERS       FAIR      82  76  81 E8        29.99R
SOUTHWEST INTL FAIR      82  76  81 E7        30.00R
NAPLES         FAIR      83  75  77 E6        30.00R
MARCO ISLAND   FAIR      83  77  82 MISG      30.01R
IMMOKALEE        N/A     84  75  74 E7        30.00R
MARATHON       FAIR      87  76  69 E6        29.98R HX  97
KEY WEST NAS   PTSUNNY   87  76  69 E9        29.98R HX  97
KEY WEST INTL  FAIR      87  76  69 SE8       29.98R HX  97

STATION/POSITION SKY/WX   TEMP    WIND        PRES    WAVE   SWELL
                          AIR SEA DIR/SP/G            HT/PER HT/PER
                          (F)     (DEG/KT/KT) (MB)    (FT/S) (FT/S)
NAPLES                     82 86              1015.7R
26.0N   85.6W              80 85  140/ 17/ 23 1015.1
DRY TORTUGAS               84     120/  9/  9 1015.2R
SAND KEY                   83                 1015.0R
SOMBRERO KEY               84      10/  1/  9 1014.5R
LONG KEY                   86 86  110/  7/  8 1015.4R

$$
FLZ067-068-071>074-168-172>174-231500-
SOUTHEAST FLORIDA

CITY           SKY/WX    TMP DP  RH WIND       PRES   REMARKS
W PALM BEACH   FAIR      85  75  72 E5        30.01R
BOCA RATON     MOSUNNY   86  73  66 NE8       30.00
FT LAUDER-EXEC FAIR      86  72  62 E7        30.00R
FT LAUDERDALE  FAIR      86  75  69 E7        29.99R HX  95
POMPANO BEACH  FAIR      86  73  65 E6        30.00R
PEMBROKE PINES FAIR      87  74  64 E7        30.01R HX  95
OPA LOCKA      FAIR      87  75  67 E3        30.00R HX  96
MIAMI          PTSUNNY   86  76  71 E6        30.00R HX  96
WEST KENDALL   FAIR      87  75  67 E6        29.99R HX  96
HOMESTEAD      FAIR      87  74  64 NE7       29.99R HX  95

STATION/POSITION SKY/WX   TEMP    WIND        PRES    WAVE   SWELL
                          AIR SEA DIR/SP/G            HT/PER HT/PER
                          (F)     (DEG/KT/KT) (MB)    (FT/S) (FT/S)
PORT EVERGLADES            85      80/  4/  6 1015.8R
VIRGINIA KEY               85 88              1015.5R
LAKE WORTH                 85 86              1017.1R
FOWEY ROCKS                84 85   90/  5/  6 1016.4R
SETTLEMENT POINT           84      90/  7/  8 1016.3R

$$




USA.gov is the U.S. government's official web portal to all federal, state and local government web resources and services.